Regional Weather Roundup
Issued by NWS New Orleans/Baton Rouge, LA

Home | Current Version | Previous Version | Graphics & Text | Print | Product List | Glossary On
Versions: 1 2 3 4 5 6 7 8 9 10 11 12 13 14 15 16 17 18 19 20 21 22 23 24 25 26 27 28 29 30 31 32 33 34 35 36 37 38 39 40 41 42 43 44 45 46 47 48 49 50
674
ASUS44 KLIX 251801
RWRLIX
NEW ORLEANS REGIONAL WEATHER ROUNDUP
NATIONAL WEATHER SERVICE NEW ORLEANS LA
100 PM CDT FRI JUL 25 2014

NOTE: "FAIR" INDICATES FEW OR NO CLOUDS BELOW 12,000 FEET WITH NO
      SIGNIFICANT WEATHER AND/OR OBSTRUCTIONS TO VISIBILITY.
      SKY/WX - SKY CONDITION AND SIGNIFICANT WEATHER.
      TMP - AIR TEMPERATURE.     DP    - DEWPOINT TEMPERATURE.
      RH  - RELATIVE HUMIDITY.   PRES  - PRESSURE.
      HI  - HEAT INDEX.          WCI   - WIND CHILL INDEX.

*  THESE STATIONS ARE NOT NWS OR FAA STATIONS AND ARE NOT UNDER
   NWS QUALITY CONTROL.

LAZ038-040-048-061>063-065>067-069-251900-
SOUTHEAST LOUISIANA

CITY           SKY/WX    TMP DP  RH WIND       PRES   REMARKS
N.O. AUDUBON     N/A     96  77  53 MISG        N/A  HX 110
6HR MIN TEMP:  79; 6HR MAX TEMP:  96;

N.O. INTL ARPT PTSUNNY   88  73  61 VRB3      30.03F HX  95
6HR MIN TEMP:  78; 6HR MAX TEMP:  91;

N.O. LAKEFRONT SUNNY     89  78  70 N7        30.04F HX 103
6HR MIN TEMP:  81; 6HR MAX TEMP:  89;

N.O. DOWNTOWN* MOCLDY    91  72  52 NW3       30.03F HX  98
6HR MIN TEMP:  79; 6HR MAX TEMP:  91;

SLIDELL        MOSUNNY   90  73  57 VRB5      30.02F HX  98
6HR MIN TEMP:  74; 6HR MAX TEMP:  90;

BATON ROUGE    MOSUNNY   90  72  55 SW6       30.03F HX  97
6HR MIN TEMP:  75; 6HR MAX TEMP:  91;

BOOTHVILLE     SUNNY     86  76  71 SW9       30.05F HX  96
6HR MIN TEMP:  81; 6HR MAX TEMP:  86;

BELLE CHASSE   PTSUNNY   91  70  49 W6        30.02F HX  96
6HR MIN TEMP:  78; 6HR MAX TEMP:  91;

BOGALUSA*        N/A     91  72  53 W3        30.03F HX  99
6HR MIN TEMP:  76; 6HR MAX TEMP:  92;

GALLIANO*      NOT AVBL
NEW ROADS*     MOCLDY    88  73  60 MISG      30.03F HX  96
6HR MIN TEMP:  74; 6HR MAX TEMP:  89;

GONZALES*        N/A     89  75  63 CALM      30.02F HX  99
6HR MIN TEMP:  75; 6HR MAX TEMP:  90;

HAMMOND*       MOSUNNY   90  72  55 W5        30.04F HX  96
HOUMA*         MOSUNNY   91  70  49 SW6       30.03F HX  97
PORT FOURCHON* CLEAR     86  75  70 W8        30.07F HX  95

$$

MSZ070-080>082-251900-
SOUTHERN MISSISSIPPI

CITY           SKY/WX    TMP DP  RH WIND       PRES   REMARKS
MCCOMB         MOSUNNY   90  72  55 VRB5      30.04F HX  97
6HR MIN TEMP:  73; 6HR MAX TEMP:  90;

GULFPORT       MOSUNNY   95  73  48 W8        30.00F HX 104
6HR MIN TEMP:  79; 6HR MAX TEMP:  95;

BILOXI         MOSUNNY   90  77  65 SW12      30.00F HX 102
PASCAGOULA     MOSUNNY   91  75  59 VRB5      30.00F HX 101
6HR MIN TEMP:  74; 6HR MAX TEMP:  91;

STENNIS ARPT*  MOSUNNY  N/A N/A N/A MISG      30.02F

$$

COASTAL OBSERVATIONS
LAKE AND NEARSHORE STATIONS

STATION/POSITION TIME  TEMP    WIND        PRES    WAVE
                       AIR SEA DIR/SP/G            HT/PER
                 (UTC) (F)     (DEG/KT/KT) (MB)    (FT/S)
PASCAGOULA       1720   87     230/ 10/ 12 1016.4
WAVELAND YACHT   1720   87     320/  5/  7 1016.5
GRAND ISLE       1720   84 84  270/  6/  9 1018.6
SOUTHWEST PASS   1720   86 84  300/  7/ 11 1018.7
NEW CANAL        1720   84 83  360/  5/  6 1017.7
SHELL BEACH      1720   84 81  330/  5/  5 1017.4

OFFSHORE STATIONS

STATION/POSITION TIME  TEMP    WIND        PRES    WAVE
                       AIR SEA DIR/SP/G            HT/PER
                 (UTC) (F)     (DEG/KT/KT) (MB)    (FT/S)
64 S DAUPHIN ISL 1651   83 86  260/ 10/ 12 1017.8

$$




USA.gov is the U.S. government's official web portal to all federal, state and local government web resources and services.